sat.trackr.live / text

‹ back to catalog

STARLINK-3602

NORAD 51791 · 2022-017Z

PAYLOAD ACTIVE UNKNOWN

§ Identity

Operator
Country
US
Launch date
2022-02-25
Launch site
AFWTR
Launch vehicle
Mass (kg)
RCS (m²)

Purposes: comms

External: N2YO · Heavens-Above · Gunter

§ Orbital elements

Epoch: 2026-09-20T01:52:41.213856Z

Period
93.90 min
Inclination
53.1598°
Eccentricity
0.0001148
Mean motion
15.33538358 rev/d
Perigee alt
464.5 km
Apogee alt
466.1 km
Semi-major
6,843.4 km
B*
6.1120e-5
RAAN
181.9069°
Arg perigee
81.1229°
Mean anomaly
278.9903°
Rev number
25,346

§ Raw data

STARLINK-36021 51791U 22017Z   26263.07825479  .00001637  00000+0  61120-4 0  99962 51791  53.1598 181.9069 0001148  81.1229 278.9903 15.33538358253469

JSON: /api/v1/satellites/51791 · /tle

For live sub-satellite position, see the globe view (requires WebGL).

§ Visibility from observer

Set your observer location to see the next 7 days of passes ≥ 10°. The values pass through the URL so the page stays shareable.

No JS? Fill the form by hand. The geolocation button needs JavaScript.